Latest Coastal Weather Observations for Gabo Island (VIC)

IDN60701

Issued at 4:25 pm EST Sunday 20 April 2014 (issued every 10 minutes, with the page automatically refreshed every 10 minutes)

About coastal observations | Map of coastal stations | Coastal observations for NSW | Marine services | Other Formats
Station Details ID: 084016 Name: GABO ISLAND LIGHTHOUSE Lat: -37.57 Lon: 149.92 Height: 15.2 m
Data from the previous 72 hours. | See also: Recent months at Gabo Island (VIC)
Date/Time
EST
Temp

°C
Wind Pressure Rain
since 9am
mm
Weather Cloud Vis
km
Sea
Height
m
Swell
Dir
 
Speed
knots
Gust
knots
hPa Trend Height
m
Period
s
Dir
20/04:00pm 16.4 SW 18 23 1016.1 - 0.0 - - - - - - -
20/03:30pm 16.7 SW 19 22 1015.7 - 0.0 - - - - - - -
20/03:00pm 16.8 SW 21 27 1015.6 - 0.0 Fine Partly cloudy 50 1 1.0 - S
20/02:30pm 16.9 SSW 21 25 1015.6 - 0.0 - - - - - - -
20/02:00pm 16.7 SSW 15 18 1015.6 - 0.0 - - - - - - -
20/01:58pm 16.6 SSW 15 18 1015.6 - 0.0 - - - - - - -
20/01:30pm 18.3 SSW 6 7 1015.6 - 0.0 - - - - - - -
20/01:00pm 17.8 SSW 5 7 1015.8 - 0.0 - - - - - - -
20/12:30pm 18.2 SSW 6 8 1016.0 - 0.0 - - - - - - -
20/12:00pm 17.1 W 5 6 1016.6 - 0.0 - - - - - - -
20/11:30am 16.4 W 7 9 1017.0 - 0.0 - - - - - - -
20/11:00am 16.5 W 9 11 1017.2 - 0.0 - - - - - - -
20/10:30am 16.4 W 10 12 1017.4 - 0.0 - - - - - - -
20/10:00am 16.0 W 10 12 1017.5 - 0.0 - - - - - - -
20/09:30am 15.0 WNW 9 11 1017.6 - 0.0 - - - - - - -
20/09:00am 14.2 WNW 9 11 1017.6 - 0.6 Fine Mostly cloudy 30 1 1.0 - S
20/08:30am 14.1 WNW 8 9 1017.6 - 0.6 - - - - - - -
20/08:00am 14.1 NW 7 9 1017.6 - 0.6 - - - - - - -
20/07:30am 13.3 WNW 8 9 1017.3 - 0.6 - - - - - - -
20/07:00am 12.5 WNW 8 11 1017.0 - 0.6 - - - - - - -
20/06:30am 12.2 NW 9 11 1016.7 - 0.6 - - - - - - -
20/06:00am 11.8 WNW 8 12 1016.5 - 0.6 - - - - - - -
20/05:30am 11.8 WNW 9 11 1016.3 - 0.6 - - - - - - -
20/05:00am 11.9 WNW 8 11 1016.5 - 0.6 - - - - - - -
20/04:30am 12.3 NW 9 11 1016.2 - 0.6 - - - - - - -
20/04:00am 12.4 WNW 9 12 1016.3 - 0.6 - - - - - - -
20/03:30am 12.4 NW 8 11 1016.4 - 0.6 - - - - - - -
20/03:00am 12.6 WNW 7 10 1016.5 - 0.6 Fine Partly cloudy 40 1 1.0 - E
20/02:30am 13.0 WNW 8 11 1016.7 - 0.6 - - - - - - -
20/02:00am 13.3 WNW 10 14 1016.9 - 0.6 - - - - - - -
20/01:30am 13.2 NW 9 12 1017.1 - 0.6 - - - - - - -
20/01:00am 13.3 NW 9 12 1017.2 - 0.6 - - - - - - -
20/12:30am 13.8 W 14 20 1017.3 - 0.6 - - - - - - -
20/12:00am 13.2 NW 9 13 1017.4 - 0.6 - - - - - - -
 
Date/Time
EST
Temp

°C
Wind Pressure Rain
since 9am
mm
Weather Cloud Vis
km
Sea
Height
m
Swell
Dir
 
Speed
knots
Gust
knots
hPa Trend Height
m
Period
s
Dir
19/11:30pm 13.1 WNW 11 14 1017.5 - 0.6 - - - - - - -
19/11:00pm 13.4 WNW 11 15 1017.6 - 0.6 - - - - - - -
19/10:30pm 13.4 NW 10 13 1017.7 - 0.6 - - - - - - -
19/10:00pm 13.6 WNW 11 16 1017.7 - 0.6 - - - - - - -
19/09:30pm 13.8 W 14 19 1017.6 - 0.6 - - - - - - -
19/09:00pm 14.2 W 16 19 1017.5 - 0.6 Distant precip. Mostly cloudy 30 2 5.0 - E
19/08:30pm 14.2 W 17 22 1017.5 - 0.6 - - - - - - -
19/08:00pm 13.8 W 16 20 1017.3 - 0.6 - - - - - - -
19/07:30pm 14.1 WSW 19 25 1017.2 - 0.6 - - - - - - -
19/07:00pm 14.3 W 18 22 1017.0 - 0.6 - - - - - - -
19/06:30pm 13.8 W 16 22 1016.9 - 0.6 - - - - - - -
19/06:00pm 13.5 WSW 21 27 1016.7 - 0.6 - - - - - - -
19/05:30pm 13.6 W 22 28 1016.3 - 0.6 - - - - - - -
19/05:00pm 13.5 WSW 21 30 1016.4 - 0.6 - - - - - - -
19/04:50pm 13.9 W 20 30 1016.4 - 0.6 - - - - - - -
19/04:30pm 13.7 W 21 26 1016.3 - 0.6 - - - - - - -
19/04:00pm 13.4 WSW 27 34 1016.4 - 0.6 - - - - - - -
19/03:46pm 13.4 WSW 24 34 1016.3 - 0.4 - - - - - - -
19/03:30pm 14.1 WSW 25 31 1016.4 - 0.2 - - - - - - -
19/03:10pm 15.4 WSW 22 32 1016.0 - 0.0 - - - - - - -
19/03:00pm 15.3 WSW 20 25 1015.9 - 0.0 Distant precip. Mostly cloudy 15 2 5.0 - E
19/02:33pm 15.2 WSW 23 33 1015.7 - 0.0 - - - - - - -
19/02:30pm 15.5 WSW 21 27 1015.8 - 0.0 - - - - - - -
19/02:00pm 14.9 WSW 24 29 1015.8 - 0.0 - - - - - - -
19/01:30pm 15.8 WSW 25 30 1015.5 - 0.0 - - - - - - -
19/01:00pm 15.0 WSW 21 28 1015.7 - 0.0 - - - - - - -
19/12:47pm 14.7 WSW 22 32 1015.9 - 0.0 - - - - - - -
19/12:30pm 14.9 WSW 21 27 1016.0 - 0.0 - - - - - - -
19/12:12pm 15.8 WSW 23 33 1016.1 - 0.0 - - - - - - -
19/12:00pm 15.9 W 22 26 1016.1 - 0.0 - - - - - - -
19/11:30am 15.5 WSW 24 29 1016.3 - 0.0 - - - - - - -
19/11:00am 15.7 WSW 24 30 1016.3 - 0.0 - - - - - - -
19/10:30am 15.1 WSW 22 28 1016.3 - 0.0 - - - - - - -
19/10:00am 14.3 W 25 30 1016.2 - 0.0 - - - - - - -
19/09:30am 14.2 W 23 29 1016.2 - 0.0 - - - - - - -
19/09:00am 13.5 W 22 27 1016.4 - 2.0 Distant precip. Mostly cloudy 30 2 5.0 - E
19/08:30am 13.0 W 24 31 1016.3 - 2.0 - - - - - - -
19/08:00am 12.6 W 22 29 1016.2 - 2.0 - - - - - - -
19/07:30am 12.7 W 23 28 1015.8 - 2.0 - - - - - - -
19/07:00am 12.7 W 23 28 1015.6 - 2.0 - - - - - - -
19/06:30am 12.8 W 21 25 1015.3 - 2.0 - - - - - - -
19/06:00am 12.4 W 21 31 1015.1 - 2.0 - - - - - - -
19/05:30am 12.8 W 25 31 1014.8 - 1.6 - - - - - - -
19/05:00am 12.7 W 23 29 1014.6 - 1.6 - - - - - - -
19/04:30am 12.5 W 26 32 1014.5 - 1.6 - - - - - - -
19/04:00am 12.5 W 23 30 1014.3 - 1.6 - - - - - - -
19/03:30am 12.4 W 22 29 1014.3 - 1.6 - - - - - - -
19/03:00am 12.7 W 27 33 1014.3 - 1.6 Recent precip. Mostly cloudy 20 2 4.0 - SE
19/02:30am 12.8 W 24 30 1014.5 - 1.6 - - - - - - -
19/02:00am 13.0 W 25 32 1014.4 - 1.6 - - - - - - -
19/01:37am 13.0 W 24 34 1014.7 - 1.6 - - - - - - -
19/01:30am 13.1 W 24 29 1014.8 - 1.6 - - - - - - -
19/01:00am 13.3 W 26 33 1014.5 - 1.6 - - - - - - -
19/12:30am 13.5 W 24 31 1014.6 - 1.6 - - - - - - -
19/12:11am 12.9 WSW 20 30 1014.7 - 1.6 - - - - - - -
19/12:00am 13.5 SW 20 25 1015.1 - 1.6 - - - - - - -
 
Date/Time
EST
Temp

°C
Wind Pressure Rain
since 9am
mm
Weather Cloud Vis
km
Sea
Height
m
Swell
Dir
 
Speed
knots
Gust
knots
hPa Trend Height
m
Period
s
Dir
18/11:55pm 13.8 SW 21 28 1015.1 - 1.4 - - - - - - -
18/11:30pm 14.0 W 24 30 1014.7 - 0.8 - - - - - - -
18/11:00pm 13.8 W 25 32 1014.8 - 0.8 - - - - - - -
18/10:41pm 14.4 W 25 35 1014.9 - 0.8 - - - - - - -
18/10:30pm 14.3 W 27 33 1014.8 - 0.8 - - - - - - -
18/10:00pm 14.7 W 26 36 1014.8 - 0.8 - - - - - - -
18/09:58pm 14.3 W 25 36 1014.8 - 0.8 - - - - - - -
18/09:30pm 14.5 W 24 31 1014.8 - 0.8 - - - - - - -
18/09:00pm 14.8 W 26 31 1014.7 - 0.8 Fine Partly cloudy 25 2 4.0 - SE
18/08:30pm 15.0 WSW 25 32 1014.5 - 0.8 - - - - - - -
18/08:00pm 14.9 W 24 34 1014.3 - 0.8 - - - - - - -
18/07:59pm 14.6 W 23 34 1014.2 - 0.8 - - - - - - -
18/07:30pm 15.0 W 21 25 1014.1 - 0.8 - - - - - - -
18/07:00pm 15.2 W 22 27 1013.9 - 0.8 - - - - - - -
18/06:30pm 15.1 W 20 27 1013.8 - 0.8 - - - - - - -
18/06:00pm 15.1 W 19 25 1013.7 - 0.8 - - - - - - -
18/05:30pm 15.3 W 22 27 1013.3 - 0.8 - - - - - - -
18/05:00pm 15.6 WSW 25 31 1012.7 - 0.6 - - - - - - -
18/04:42pm 16.4 SW 25 40 1012.3 - 0.0 - - - - - - -
18/04:30pm 16.6 WSW 26 34 1012.1 - 0.0 - - - - - - -
18/04:00pm 17.8 SW 34 44 1011.2 - 0.0 - - - - - - -
18/03:56pm 18.1 SW 32 42 1011.0 - 0.0 - - - - - - -
18/03:43pm 19.2 SW 33 36 1010.7 - 0.0 - - - - - - -
18/03:32pm 19.7 SW 22 34 1010.4 - 0.0 - - - - - - -
18/03:30pm 20.1 SW 20 26 1010.4 - 0.0 - - - - - - -
18/03:27pm 20.0 SW 18 25 1010.4 - 0.0 - - - - - - -
18/03:00pm 20.3 SSW 13 15 1010.3 - 0.0 Fine Mostly cloudy 50 1 4.0 - SE
18/02:30pm 21.0 WSW 7 11 1010.3 - 0.0 - - - - - - -
18/02:00pm 21.5 SSW 7 8 1010.4 - 0.0 - - - - - - -
18/01:30pm 20.9 SW 11 15 1010.9 - 0.0 - - - - - - -
18/01:00pm 22.0 WSW 12 16 1011.3 - 0.0 - - - - - - -
18/12:30pm 21.8 WSW 10 13 1011.6 - 0.0 - - - - - - -
18/12:00pm 21.4 WSW 7 9 1012.2 - 0.0 - - - - - - -
18/11:30am 20.6 W 8 10 1012.8 - 0.0 - - - - - - -
18/11:00am 20.6 W 7 11 1013.2 - 0.0 - - - - - - -
18/10:30am 20.8 WNW 8 10 1013.4 - 0.0 - - - - - - -
18/10:00am 19.5 WNW 7 9 1013.8 - 0.0 - - - - - - -
18/09:30am 18.6 WNW 6 8 1014.1 - 0.0 - - - - - - -
18/09:00am 17.7 NW 6 7 1014.4 - 0.0 Fine Mostly clear 50 1 4.0 - SE
18/08:30am 16.6 NW 7 9 1014.6 - 0.0 - - - - - - -
18/08:00am 15.3 WNW 8 9 1014.7 - 0.0 - - - - - - -
18/07:30am 14.8 WNW 7 9 1014.7 - 0.0 - - - - - - -
18/07:00am 13.9 WNW 8 10 1014.7 - 0.0 - - - - - - -
18/06:30am 12.9 WNW 8 9 1014.9 - 0.0 - - - - - - -
18/06:00am 12.6 WNW 6 7 1014.9 - 0.0 - - - - - - -
18/05:30am 12.7 WNW 7 8 1015.1 - 0.0 - - - - - - -
18/05:00am 12.8 WNW 7 7 1015.3 - 0.0 - - - - - - -
18/04:30am 13.0 WNW 8 9 1015.6 - 0.0 - - - - - - -
18/04:00am 13.3 WNW 7 8 1015.7 - 0.0 - - - - - - -
18/03:30am 13.6 WNW 8 9 1015.9 - 0.0 - - - - - - -
18/03:00am 14.2 NW 7 8 1016.3 - 0.0 Fine Mostly clear 50 1 1.0 - SE
18/02:30am 14.1 NW 7 8 1016.6 - 0.0 - - - - - - -
18/02:00am 14.3 WNW 7 9 1016.9 - 0.0 - - - - - - -
18/01:30am 14.5 NW 8 9 1017.2 - 0.0 - - - - - - -
18/01:00am 14.4 NW 8 9 1017.6 - 0.0 - - - - - - -
18/12:30am 14.6 NW 7 9 1017.8 - 0.0 - - - - - - -
18/12:00am 14.8 WNW 8 9 1018.2 - 0.0 - - - - - - -
 
Date/Time
EST
Temp

°C
Wind Pressure Rain
since 9am
mm
Weather Cloud Vis
km
Sea
Height
m
Swell
Dir
 
Speed
knots
Gust
knots
hPa Trend Height
m
Period
s
Dir
17/11:30pm 14.7 WNW 8 9 1018.5 - 0.0 - - - - - - -
17/11:00pm 14.8 NW 8 9 1018.8 - 0.0 - - - - - - -
17/10:30pm 14.9 NW 8 9 1019.0 - 0.0 - - - - - - -
17/10:00pm 14.8 NW 7 8 1019.3 - 0.0 - - - - - - -
17/09:30pm 15.2 WNW 7 8 1019.4 - 0.0 - - - - - - -
17/09:00pm 16.1 WNW 7 8 1019.5 - 0.0 Fine Mostly clear 50 1 1.0 - SE
17/08:30pm 17.0 S 4 6 1019.6 - 0.0 - - - - - - -
17/08:00pm 17.3 SSE 4 6 1019.5 - 0.0 - - - - - - -
17/07:30pm 17.6 SSE 7 9 1019.4 - 0.0 - - - - - - -
17/07:00pm 17.6 SSE 8 11 1019.2 - 0.0 - - - - - - -
17/06:30pm 17.8 SSW 8 10 1019.1 - 0.0 - - - - - - -
17/06:00pm 17.7 S 9 11 1019.1 - 0.0 - - - - - - -
17/05:30pm 17.9 SSW 9 11 1019.2 - 0.0 - - - - - - -
17/05:00pm 18.4 SSW 11 14 1019.3 - 0.0 - - - - - - -
17/04:30pm 18.5 SSW 11 14 1019.3 - 0.0 - - - - - - -

Other Formats:

Comma delimited format used in spreadsheet applications
http://www.bom.gov.au/fwo/IDN60701/IDN60701.94933.axf

JavaScript Object Notation format (JSON) in row-major order
http://www.bom.gov.au/fwo/IDN60701/IDN60701.94933.json